This demonstration page uses our WeatherBlox Daily Observations layout. Learn more.

Left ArrowRight Arrow

41.55636, -103.73856

Hourly Observations for September 15, 2015

Temp ( °F °C ) Dew Point ( °F °C ) Humidity (%) Winds ( mph kmh ) Pressure ( in mb ) Visibility ( mi km ) Precip ( " mm )
12:53 am 00:53 Clear 64 17.8 47 8.3 54 54 NW 18 30 29.63 1004 10 16.0934 0 0
1:53 am 01:53 Clear 65 18.3 45 7.2 49 49 NW 17 28 29.6 1002 10 16.0934 0 0
2:53 am 02:53 Clear 61 16.1 47 8.3 60 60 VRB 6 9 29.6 1002 10 16.0934 0 0
3:53 am 03:53 Clear 57 13.9 49 9.4 74 74 NE 7 11 29.61 1003 10 16.0934 0 0
4:53 am 04:53 Clear 57 13.9 50 10 78 78 NNE 12 19 29.62 1003 10 16.0934 0 0
5:06 am 05:06 Clear 57 13.9 48 8.9 72 72 NNW 14 22 29.65 1004 10 16.0934 0 0
5:53 am 05:53 Clear 56 13.3 49 9.4 77 77 NE 7 11 29.65 1004 10 16.0934 0 0
6:53 am 06:53 Sunny 57 13.9 48 8.9 72 72 NNE 10 17 29.65 1004 10 16.0934 0 0
7:53 am 07:53 Sunny 62 16.7 49 9.4 62 62 WNW 18 30 29.68 1005 10 16.0934 0 0
8:53 am 08:53 Sunny 68 20 50 10 53 53 NW 13 20 29.65 1004 10 16.0934 0 0
9:53 am 09:53 Sunny 74 23.3 51 10.6 45 45 VRB 5 7 29.67 1005 10 16.0934 0 0
10:53 am 10:53 Mostly Cloudy 81 27.2 48 8.9 32 32 WNW 15 24 29.67 1005 10 16.0934 0 0
11:53 am 11:53 Sunny 85 29.4 45 7.2 25 25 WNW 25 41 29.64 1004 10 16.0934 0 0
12:53 pm 12:53 Sunny 86 30 44 6.7 23 23 WNW 26 43 29.62 1003 10 16.0934 0 0
1:53 pm 13:53 Mostly Sunny 88 31.1 43 6.1 21 21 WNW 25 41 29.6 1002 10 16.0934 0 0
2:53 pm 14:53 Sunny 89 31.7 43 6.1 20 20 WNW 21 33 29.6 1002 10 16.0934 0 0
3:53 pm 15:53 Sunny 89 31.7 42 5.6 19 19 WNW 22 35 29.62 1003 10 16.0934 0 0
4:53 pm 16:53 Sunny 87 30.6 39 3.9 18 18 WNW 14 22 29.62 1003 10 16.0934 0 0
5:53 pm 17:53 Mostly Sunny 85 29.4 39 3.9 20 20 W 24 39 29.64 1004 10 16.0934 0 0
6:53 pm 18:53 Sunny 79 26.1 39 3.9 24 24 WNW 15 24 29.67 1005 10 16.0934 0 0
7:53 pm 19:53 Clear 71 21.7 42 5.6 35 35 NW 14 22 29.69 1006 10 16.0934 0 0
8:53 pm 20:53 Clear 68 20 45 7.2 44 44 NW 18 30 29.71 1006 10 16.0934 0 0
9:53 pm 21:53 Clear 69 20.6 46 7.8 44 44 NW 15 24 29.71 1006 10 16.0934 0 0
10:53 pm 22:53 Clear 67 19.4 45 7.2 45 45 WNW 15 24 29.73 1007 10 16.0934 0 0
11:53 pm 23:53 Clear 62 16.7 46 7.8 56 56 NW 13 20 29.75 1008 10 16.0934 0 0

Powered by AerisWeather